Columbus, NE

4:35 PM CDT on March 30, 2017 (GMT -0500)
Columbus Municipal

Weather History for KOLU - February, 2013

Change the Weather History Date:

Friday, February 1, 2013

  Actual Average Record
Temperature  
Mean Temperature 18 °F -  
Max Temperature 33 °F 31 °F 65 °F (1992)
Min Temperature 3 °F 11 °F -15 °F (1979)
Degree Days  
Heating Degree Days 47    
Moisture  
Dew Point 11 °F    
Average Humidity 67    
Maximum Humidity 80    
Minimum Humidity 56    
Precipitation  
Precipitation 0.00 in - - ()
Sea Level Pressure  
Sea Level Pressure 30.14 in    
Wind  
Wind Speed 7 mph (SSW)    
Max Wind Speed 18 mph    
Max Gust Speed 25 mph    
Visibility 10 miles    
Events      
Averages and records for this station are not official NWS values.
T = Trace of Precipitation, MM = Missing Value Source: NWS Daily Summary

Daily Weather History Graph

Daily Weather History Graph

Search for Another Location

Airport or City:

Trip Planner

Search our weather history database for the weather conditions in past years. The results will help you decide how hot, cold, wet, or windy it might be!

Date:

Astronomy

Feb. 01, 2013 Rise Set
Actual Time 7:40 AM CST 5:45 PM CST
Civil Twilight 7:11 AM CST 6:15 PM CST
Nautical Twilight 6:38 AM CST 6:48 PM CST
Astronomical Twilight 6:05 AM CST 7:20 PM CST
Moon 11:59 PM CST (2/1) 10:09 AM CST (2/1)
Length of Visible Light 11h 03m
Length of Day
10h 05m
Waning Gibbous, 70% of the Moon is Illuminated
Feb 1
Waning Gibbous
Feb 3
Last Quarter
Feb 10
New
Feb 17
First Quarter
Feb 25
Full

Hourly Weather History & Observations

Time (CST) Temp. Windchill Dew Point Humidity Pressure Visibility Wind Dir Wind Speed Gust Speed Precip Events Conditions
12:15 AM 3.2 °F -7.8 °F -5.8 °F 66% 30.36 in 10.0 mi West 5.8 mph - N/A   Overcast
12:35 AM 3.2 °F -4.2 °F -5.8 °F 66% 30.37 in 10.0 mi West 3.5 mph - N/A   Overcast
12:55 AM 5.0 °F - -5.8 °F 61% 30.36 in 10.0 mi Calm Calm - N/A   Overcast
1:15 AM 5.0 °F - -5.8 °F 61% 30.34 in 10.0 mi Calm Calm - N/A   Overcast
1:35 AM 5.0 °F - -5.8 °F 61% 30.33 in 10.0 mi Calm Calm - N/A   Overcast
1:55 AM 6.8 °F - -5.8 °F 56% 30.33 in 10.0 mi Calm Calm - N/A   Overcast
2:15 AM 6.8 °F -0.1 °F -5.8 °F 56% 30.31 in 10.0 mi ENE 3.5 mph - N/A   Overcast
2:35 AM 5.0 °F - -5.8 °F 61% 30.31 in 10.0 mi Calm Calm - N/A   Overcast
2:55 AM 6.8 °F -4.8 °F -4.0 °F 61% 30.31 in 10.0 mi SSW 6.9 mph - N/A   Overcast
3:15 AM 6.8 °F -3.5 °F -4.0 °F 61% 30.32 in 10.0 mi SSW 5.8 mph - N/A   Overcast
3:35 AM 6.8 °F -3.5 °F -2.2 °F 67% 30.31 in 10.0 mi South 5.8 mph - N/A   Overcast
4:15 AM 6.8 °F -0.1 °F -2.2 °F 67% 30.30 in 10.0 mi South 3.5 mph - N/A   Overcast
4:35 AM 8.6 °F -2.6 °F -2.2 °F 62% 30.29 in 10.0 mi South 6.9 mph - N/A   Overcast
5:15 AM 8.6 °F -2.6 °F -0.4 °F 67% 30.28 in 10.0 mi South 6.9 mph - N/A   Overcast
5:35 AM 8.6 °F -3.7 °F -0.4 °F 67% 30.28 in 10.0 mi SSE 8.1 mph - N/A   Overcast
5:55 AM 8.6 °F -1.3 °F -0.4 °F 67% 30.26 in 10.0 mi SSE 5.8 mph - N/A   Overcast
6:15 AM 8.6 °F -1.3 °F -0.4 °F 67% 30.27 in 10.0 mi SSE 5.8 mph - N/A   Overcast
6:35 AM 8.6 °F -4.7 °F -0.4 °F 67% 30.26 in 10.0 mi South 9.2 mph - N/A   Overcast
6:55 AM 8.6 °F -3.7 °F -0.4 °F 67% 30.25 in 10.0 mi South 8.1 mph - N/A   Overcast
7:15 AM 8.6 °F -4.7 °F -0.4 °F 67% 30.23 in 10.0 mi SSE 9.2 mph - N/A   Scattered Clouds
7:35 AM 6.8 °F -6.9 °F -0.4 °F 72% 30.23 in 10.0 mi South 9.2 mph - N/A   Clear
8:15 AM 8.6 °F -3.7 °F -0.4 °F 67% 30.21 in 10.0 mi SSE 8.1 mph - N/A   Clear
8:35 AM 8.6 °F -2.6 °F -0.4 °F 67% 30.20 in 10.0 mi SSE 6.9 mph - N/A   Clear
8:55 AM 10.4 °F -0.4 °F 1.4 °F 67% 30.21 in 10.0 mi SSE 6.9 mph - N/A   Clear
9:15 AM 12.2 °F 1.7 °F 3.2 °F 67% 30.20 in 10.0 mi SSE 6.9 mph - N/A   Partly Cloudy
9:35 AM 14.0 °F 1.2 °F 3.2 °F 62% 30.19 in 10.0 mi SSE 10.4 mph - N/A   Mostly Cloudy
9:55 AM 14.0 °F 3.9 °F 3.2 °F 62% 30.19 in 10.0 mi SSE 6.9 mph - N/A   Overcast
10:15 AM 15.8 °F 2.7 °F 5.0 °F 62% 30.17 in 10.0 mi South 11.5 mph - N/A   Overcast
10:35 AM 17.6 °F 6.4 °F 6.8 °F 63% 30.17 in 10.0 mi South 9.2 mph - N/A   Overcast
10:55 AM 17.6 °F 6.4 °F 8.6 °F 68% 30.17 in 10.0 mi South 9.2 mph - N/A   Overcast
11:15 AM 17.6 °F 7.3 °F 8.6 °F 68% 30.16 in 10.0 mi South 8.1 mph - N/A   Overcast
11:35 AM 21.2 °F 11.7 °F 10.4 °F 63% 30.15 in 10.0 mi South 8.1 mph - N/A   Overcast
11:55 AM 23.0 °F 13.1 °F 12.2 °F 63% 30.13 in 10.0 mi South 9.2 mph - N/A   Scattered Clouds
12:15 PM 23.0 °F 12.4 °F 12.2 °F 63% 30.11 in 10.0 mi South 10.4 mph - N/A   Mostly Cloudy
12:35 PM 26.6 °F 16.8 °F 15.8 °F 64% 30.09 in 10.0 mi South 10.4 mph - N/A   Scattered Clouds
12:55 PM 28.4 °F 18.5 °F 17.6 °F 64% 30.07 in 10.0 mi South 11.5 mph - N/A   Scattered Clouds
1:15 PM 30.2 °F 21.3 °F 19.4 °F 64% 30.06 in 10.0 mi South 10.4 mph - N/A   Mostly Cloudy
1:35 PM 30.2 °F 18.5 °F 19.4 °F 64% 30.05 in 10.0 mi SSW 17.3 mph - N/A   Mostly Cloudy
1:55 PM 30.2 °F 19.3 °F 21.2 °F 69% 30.04 in 10.0 mi SSW 15.0 mph 19.6 mph N/A   Mostly Cloudy
2:15 PM 33.8 °F 22.8 °F 21.2 °F 60% 30.02 in 10.0 mi South 18.4 mph 23.0 mph N/A   Partly Cloudy
2:35 PM 33.8 °F 23.2 °F 23.0 °F 65% 30.02 in 10.0 mi SSW 17.3 mph 25.3 mph N/A   Mostly Cloudy
2:55 PM 33.8 °F 23.2 °F 23.0 °F 65% 30.02 in 10.0 mi SSW 17.3 mph - N/A   Mostly Cloudy
3:15 PM 33.8 °F 22.8 °F 21.2 °F 60% 30.02 in 10.0 mi SSW 18.4 mph 24.2 mph N/A   Mostly Cloudy
3:35 PM 33.8 °F 23.5 °F 21.2 °F 60% 30.01 in 10.0 mi SSW 16.1 mph - N/A   Clear
3:55 PM 33.8 °F 23.9 °F 21.2 °F 60% 30.00 in 10.0 mi SSW 15.0 mph - N/A   Scattered Clouds
4:15 PM 33.8 °F 24.3 °F 23.0 °F 65% 30.00 in 10.0 mi SSW 13.8 mph 23.0 mph N/A   Mostly Cloudy
4:35 PM 33.8 °F 23.9 °F 23.0 °F 65% 30.00 in 10.0 mi SSW 15.0 mph - N/A   Overcast
4:55 PM 33.8 °F 25.3 °F 23.0 °F 65% 30.00 in 10.0 mi SSW 11.5 mph - N/A   Overcast
5:15 PM 33.8 °F 24.3 °F 23.0 °F 65% 30.00 in 10.0 mi SSW 13.8 mph - N/A   Overcast
5:35 PM 33.8 °F 25.3 °F 23.0 °F 65% 30.00 in 10.0 mi SSW 11.5 mph 20.7 mph N/A   Overcast
5:55 PM 32.0 °F 22.5 °F 23.0 °F 69% 29.99 in 10.0 mi SSW 12.7 mph - N/A   Overcast
6:15 PM 32.0 °F 23.0 °F 21.2 °F 64% 30.00 in 10.0 mi SSW 11.5 mph - N/A   Overcast
6:35 PM 30.2 °F 20.8 °F 23.0 °F 75% 30.00 in 10.0 mi SSW 11.5 mph - N/A   Partly Cloudy
6:55 PM 30.2 °F 20.8 °F 21.2 °F 69% 30.00 in 10.0 mi South 11.5 mph - N/A   Clear
7:15 PM 30.2 °F 20.8 °F 21.2 °F 69% 30.00 in 10.0 mi SSW 11.5 mph - N/A   Clear
7:35 PM 30.2 °F 21.9 °F 21.2 °F 69% 30.01 in 10.0 mi SSW 9.2 mph - N/A   Partly Cloudy
7:55 PM 30.2 °F 21.3 °F 21.2 °F 69% 30.01 in 10.0 mi SSW 10.4 mph - N/A   Clear
8:15 PM 28.4 °F 21.2 °F 21.2 °F 74% 30.02 in 10.0 mi SW 6.9 mph - N/A   Clear
8:35 PM 28.4 °F 23.3 °F 21.2 °F 74% 30.02 in 10.0 mi WSW 4.6 mph - N/A   Partly Cloudy
8:55 PM 30.2 °F 24.3 °F 21.2 °F 69% 30.03 in 10.0 mi West 5.8 mph - N/A   Scattered Clouds
9:15 PM 30.2 °F 24.3 °F 23.0 °F 75% 30.03 in 10.0 mi WSW 5.8 mph - N/A   Mostly Cloudy
9:35 PM 30.2 °F 25.4 °F 23.0 °F 75% 30.03 in 10.0 mi WSW 4.6 mph - N/A   Mostly Cloudy
9:55 PM 28.4 °F - 21.2 °F 74% 30.03 in 10.0 mi Calm Calm - N/A   Mostly Cloudy
10:15 PM 30.2 °F - 23.0 °F 75% 30.04 in 10.0 mi Calm Calm - N/A   Overcast
10:35 PM 30.2 °F - 24.8 °F 80% 30.05 in 10.0 mi Calm Calm - N/A   Overcast
10:55 PM 28.4 °F 23.3 °F 21.2 °F 74% 30.06 in 10.0 mi NW 4.6 mph - N/A   Overcast
11:15 PM 26.6 °F 22.6 °F 21.2 °F 80% 30.07 in 10.0 mi NW 3.5 mph - N/A   Overcast
11:35 PM 28.4 °F 22.2 °F 21.2 °F 74% 30.06 in 10.0 mi North 5.8 mph - N/A   Mostly Cloudy
11:55 PM 30.2 °F 25.4 °F 24.8 °F 80% 30.06 in 10.0 mi NNW 4.6 mph - N/A   Partly Cloudy